Weather History for KONA - September, 2012

Change the Weather History Date:

Monday, September 24, 2012

  Actual Average Record
Temperature  
Mean Temperature 54 °F -  
Max Temperature 75 °F 66 °F 84 °F (2007)
Min Temperature 32 °F 46 °F 32 °F (2012)
Degree Days  
Heating Degree Days 12    
Growing Degree Days 4 (Base 50)    
Moisture  
Dew Point 31 °F    
Average Humidity 49    
Maximum Humidity 100    
Minimum Humidity 21    
Precipitation  
Precipitation 0.00 in - - ()
Sea Level Pressure  
Sea Level Pressure 29.94 in    
Wind  
Wind Speed 4 mph (WSW)    
Max Wind Speed 16 mph    
Max Gust Speed 29 mph    
Visibility 10 miles    
Events      
Averages and records for this station are not official NWS values.
T = Trace of Precipitation, MM = Missing Value Source: NWS Daily Summary

Daily Weather History Graph

Daily Weather History Graph

Search for Another Location

Airport or City:

Trip Planner

Search our weather history database for the weather conditions in past years. The results will help you decide how hot, cold, wet, or windy it might be!

Date:

Astronomy

Sep. 24, 2012 Rise Set
Actual Time 6:56 AM CDT 6:59 PM CDT
Civil Twilight 6:28 AM CDT 7:28 PM CDT
Nautical Twilight 5:54 AM CDT 8:02 PM CDT
Astronomical Twilight 5:19 AM CDT 8:36 PM CDT
Moon 3:55 PM CDT (9/24) 1:03 AM CDT (9/24)
Length of Visible Light 13h 00m
Length of Day
12h 02m
Waxing Gibbous, 71% of the Moon is Illuminated
Sep 24
Waxing Gibbous
Sep 29
Full
Oct 8
Last Quarter
Oct 15
New
Oct 21
First Quarter

Hourly Weather History & Observations

Time (CDT) Temp. Windchill Dew Point Humidity Pressure Visibility Wind Dir Wind Speed Gust Speed Precip Events Conditions
12:11 AM 33.8 °F - 32.0 °F 93% 30.19 in 10.0 mi Calm Calm - N/A   Clear
12:32 AM 33.8 °F - 32.0 °F 93% 30.19 in 10.0 mi Calm Calm - N/A   Clear
12:51 AM 33.8 °F - 32.0 °F 93% 30.18 in 10.0 mi Calm Calm - N/A   Clear
1:11 AM 33.8 °F - 32.0 °F 93% 30.18 in 10.0 mi Calm Calm - N/A   Clear
1:51 AM 33.8 °F - 32.0 °F 93% 30.17 in 10.0 mi Calm Calm - N/A   Clear
2:32 AM 32.0 °F - 30.2 °F 93% 30.16 in 10.0 mi Calm Calm - N/A   Clear
2:51 AM 32.0 °F - 30.2 °F 93% 30.15 in 10.0 mi Calm Calm - N/A   Clear
3:11 AM 32.0 °F - 30.2 °F 93% 30.15 in 10.0 mi Calm Calm - N/A   Clear
3:31 AM 32.0 °F - 30.2 °F 93% 30.15 in 10.0 mi Calm Calm - N/A   Clear
3:51 AM 33.8 °F - 32.0 °F 93% 30.14 in 10.0 mi Calm Calm - N/A   Clear
4:12 AM 32.0 °F 28.7 °F 30.2 °F 93% 30.14 in 10.0 mi NNW 3.5 mph - N/A   Clear
4:31 AM 32.0 °F - 30.2 °F 93% 30.13 in 10.0 mi Calm Calm - N/A   Clear
4:52 AM 32.0 °F - 32.0 °F 100% 30.12 in 10.0 mi Calm Calm - N/A   Clear
5:11 AM 32.0 °F - 32.0 °F 100% 30.12 in 10.0 mi Calm Calm - N/A   Clear
5:31 AM 32.0 °F - 32.0 °F 100% 30.11 in 10.0 mi Calm Calm - N/A   Clear
5:51 AM 33.8 °F - 30.2 °F 87% 30.10 in 10.0 mi Calm Calm - N/A   Clear
6:11 AM 33.8 °F - 30.2 °F 87% 30.10 in 10.0 mi Calm Calm - N/A   Clear
6:31 AM 35.6 °F - 30.2 °F 81% 30.09 in 10.0 mi Calm Calm - N/A   Clear
6:51 AM 37.4 °F - 30.2 °F 75% 30.08 in 10.0 mi Calm Calm - N/A   Clear
7:11 AM 37.4 °F - 30.2 °F 75% 30.08 in 10.0 mi Calm Calm - N/A   Clear
7:31 AM 37.4 °F - 28.4 °F 70% 30.07 in 10.0 mi Calm Calm - N/A   Clear
7:51 AM 41.0 °F 39.0 °F 28.4 °F 61% 30.07 in 10.0 mi SW 3.5 mph - N/A   Clear
8:11 AM 46.4 °F 42.9 °F 28.4 °F 50% 30.06 in 10.0 mi WSW 6.9 mph - N/A   Clear
8:31 AM 46.4 °F 41.9 °F 26.6 °F 46% 30.05 in 10.0 mi WSW 9.2 mph - N/A   Clear
8:51 AM 50.0 °F - 26.6 °F 40% 30.04 in 10.0 mi SW 8.1 mph - N/A   Clear
9:11 AM 51.8 °F - 28.4 °F 41% 30.03 in 10.0 mi SW 9.2 mph 16.1 mph N/A   Clear
9:51 AM 53.6 °F - 26.6 °F 35% 30.00 in 10.0 mi WSW 11.5 mph - N/A   Clear
10:11 AM 55.4 °F - 28.4 °F 36% 29.99 in 10.0 mi SW 9.2 mph 16.1 mph N/A   Clear
10:51 AM 59.0 °F - 28.4 °F 31% 29.97 in 10.0 mi WSW 9.2 mph 19.6 mph N/A   Clear
11:11 AM 62.6 °F - 30.2 °F 30% 29.96 in 10.0 mi SW 9.2 mph 16.1 mph N/A   Clear
11:31 AM 64.4 °F - 30.2 °F 28% 29.94 in 10.0 mi SW 10.4 mph 21.9 mph N/A   Clear
11:51 AM 68.0 °F - 30.2 °F 24% 29.93 in 10.0 mi WSW 12.7 mph 20.7 mph N/A   Clear
12:11 PM 68.0 °F - 30.2 °F 24% 29.92 in 10.0 mi West 10.4 mph 26.5 mph N/A   Clear
12:31 PM 69.8 °F - 32.0 °F 25% 29.92 in 10.0 mi West 10.4 mph 18.4 mph N/A   Clear
12:51 PM 69.8 °F - 32.0 °F 25% 29.90 in 10.0 mi SW 13.8 mph 23.0 mph N/A   Clear
1:11 PM 71.6 °F - 32.0 °F 23% 29.89 in 10.0 mi WSW 13.8 mph 25.3 mph N/A   Clear
1:51 PM 71.6 °F - 32.0 °F 23% 29.86 in 10.0 mi WSW 16.1 mph 28.8 mph N/A   Clear
2:11 PM 71.6 °F - 32.0 °F 23% 29.85 in 10.0 mi WSW 8.1 mph 20.7 mph N/A   Clear
2:32 PM 73.4 °F - 32.0 °F 22% 29.84 in 10.0 mi West 12.7 mph 23.0 mph N/A   Clear
2:51 PM 73.4 °F - 32.0 °F 22% 29.82 in 10.0 mi WSW 13.8 mph 23.0 mph N/A   Clear
3:11 PM 73.4 °F - 32.0 °F 22% 29.81 in 10.0 mi West 11.5 mph 25.3 mph N/A   Clear
3:32 PM 73.4 °F - 32.0 °F 22% 29.80 in 10.0 mi West 12.7 mph 21.9 mph N/A   Clear
3:51 PM 73.4 °F - 32.0 °F 22% 29.79 in 10.0 mi West 11.5 mph 23.0 mph N/A   Clear
4:11 PM 73.4 °F - 32.0 °F 22% 29.79 in 10.0 mi West 12.7 mph 24.2 mph N/A   Clear
4:32 PM 73.4 °F - 32.0 °F 22% 29.77 in 10.0 mi West 15.0 mph 24.2 mph N/A   Clear
4:51 PM 73.4 °F - 32.0 °F 22% 29.77 in 10.0 mi West 9.2 mph 21.9 mph N/A   Clear
5:11 PM 75.2 °F - 32.0 °F 21% 29.76 in 10.0 mi WSW 10.4 mph 18.4 mph N/A   Clear
5:32 PM 73.4 °F - 32.0 °F 22% 29.76 in 10.0 mi WSW 12.7 mph 20.7 mph N/A   Clear
5:51 PM 73.4 °F - 32.0 °F 22% 29.75 in 10.0 mi West 8.1 mph - N/A   Clear
6:11 PM 73.4 °F - 32.0 °F 22% 29.76 in 10.0 mi WSW 5.8 mph - N/A   Clear
6:32 PM 71.6 °F - 32.0 °F 23% 29.76 in 10.0 mi West 5.8 mph - N/A   Clear
6:51 PM 71.6 °F - 32.0 °F 23% 29.76 in 10.0 mi West 4.6 mph - N/A   Clear
7:11 PM 71.6 °F - 33.8 °F 25% 29.76 in 10.0 mi WSW 3.5 mph - N/A   Clear
7:31 PM 71.6 °F - 33.8 °F 25% 29.76 in 10.0 mi WSW 6.9 mph - N/A   Clear
7:51 PM 69.8 °F - 32.0 °F 25% 29.76 in 10.0 mi SW 8.1 mph - N/A   Clear
8:12 PM 68.0 °F - 32.0 °F 26% 29.77 in 10.0 mi WSW 4.6 mph - N/A   Clear
8:31 PM 68.0 °F - 32.0 °F 26% 29.77 in 10.0 mi WSW 5.8 mph - N/A   Clear
8:51 PM 68.0 °F - 33.8 °F 28% 29.77 in 10.0 mi WSW 5.8 mph - N/A   Clear
9:11 PM 68.0 °F - 33.8 °F 28% 29.78 in 10.0 mi WSW 3.5 mph - N/A   Clear
9:31 PM 66.2 °F - 33.8 °F 30% 29.78 in 10.0 mi WSW 4.6 mph - N/A   Clear
9:51 PM 62.6 °F - 33.8 °F 34% 29.78 in 10.0 mi WSW 3.5 mph - N/A   Clear
10:11 PM 62.6 °F - 33.8 °F 34% 29.78 in 10.0 mi WSW 4.6 mph - N/A   Clear
10:31 PM 62.6 °F - 33.8 °F 34% 29.78 in 10.0 mi WSW 3.5 mph - N/A   Clear
10:51 PM 60.8 °F - 33.8 °F 36% 29.78 in 10.0 mi SW 4.6 mph - N/A   Clear
11:51 PM 51.8 °F - 41.0 °F 67% 29.78 in 10.0 mi Calm Calm - N/A   Clear